DW6619 Weather Reports


Display with metric or nautical units.
time (UTC)temp
F
wind
direction
speed
MPH
gust
MPH
rain 1hr
in
rain 24hr
in
rain mn
in
humidity
%
barometer
mb
20260503221519 65 188 0.0 0.0 0.00 0.00 0.00 31 1013.9
20260503220011 67 17 0.0 0.0 0.00 0.00 0.00 29 1014.1
20260503214537 67 188 0.0 0.0 0.00 0.00 0.00 29 1013.9
20260503213035 68 275 0.0 1.0 0.00 0.00 0.00 27 1014.1
20260503211517 68 186 0.0 0.0 0.00 0.00 0.00 29 1014.2
20260503210034 67 69 0.0 0.0 0.00 0.00 0.00 31 1014.1
20260503204534 67 275 0.0 0.0 0.00 0.00 0.00 32 1014.3
20260503203028 66 93 0.0 0.0 0.00 0.00 0.00 31 1014.3
20260503201522 66 205 1.0 6.0 0.00 0.00 0.00 31 1014.4
20260503200031 66 194 0.0 3.0 0.00 0.00 0.00 35 1014.6
20260503194519 66 222 0.0 5.0 0.00 0.00 0.00 34 1015.0
20260503193047 66 44 0.0 0.0 0.00 0.00 0.00 34 1015.1
20260503191528 65 208 0.0 0.0 0.00 0.00 0.00 36 1015.4
20260503190011 64 198 0.0 4.0 0.00 0.00 0.00 43 1015.6
20260503184530 63 30 0.0 0.0 0.00 0.00 0.00 34 1015.7
20260503183010 62 264 0.0 3.0 0.00 0.00 0.00 36 1015.9
20260503181526 62 32 0.0 7.0 0.00 0.00 0.00 40 1016.1
20260503180043 60 53 0.0 1.0 0.00 0.00 0.00 41 1016.2
20260503174520 59 130 0.0 0.0 0.00 0.00 0.00 43 1016.4
20260503173013 60 187 0.0 8.0 0.00 0.00 0.00 42 1016.4
20260503171510 59 143 0.0 1.0 0.00 0.00 0.00 43 1016.7
20260503081519 40 101 0.0 0.0 0.00 0.00 0.00 75 1015.0
20260503071534 41 67 0.0 0.0 0.00 0.00 0.00 73 1014.5
20260503054510 46 17 0.0 0.0 0.00 0.00 0.00 64 1014.3
20260503053027 46 121 0.0 0.0 0.00 0.00 0.00 63 1014.2
20260503051525 47 291 0.0 0.0 0.00 0.00 0.00 62 1014.3
20260503050042 47 43 0.0 0.0 0.00 0.01 0.00 60 1014.3
20260503044518 48 149 0.0 0.0 0.00 0.01 0.00 59 1014.3
20260503043013 49 63 0.0 0.0 0.00 0.01 0.00 57 1014.4
20260503041511 49 155 0.0 0.0 0.00 0.01 0.00 55 1014.4
20260503040026 49 227 0.0 0.0 0.00 0.02 0.01 55 1014.3
20260503034527 50 88 0.0 0.0 0.00 0.02 0.01 54 1014.2
20260503033023 51 256 0.0 0.0 0.00 0.02 0.01 53 1014.1
20260503031515 51 360 0.0 0.0 0.00 0.02 0.01 54 1014.0
20260503030012 52 5 0.0 8.0 0.00 0.02 0.01 53 1014.0
20260503024510 52 345 0.0 1.0 0.00 0.02 0.01 52 1014.0
20260503023025 52 33 0.0 0.0 0.00 0.02 0.01 52 1013.9
20260503021524 52 284 0.0 0.0 0.00 0.02 0.01 54 1013.9
20260503020038 52 355 0.0 0.0 0.00 0.02 0.01 53 1013.8
20260503014518 52 355 0.0 0.0 0.00 0.02 0.01 52 1013.7
20260503013013 52 17 0.0 0.0 0.00 0.02 0.01 52 1013.5
20260503011511 53 22 0.0 0.0 0.00 0.02 0.01 52 1013.4
20260503010047 53 22 0.0 0.0 0.00 0.02 0.01 51 1013.2
20260503004544 53 224 0.0 0.0 0.00 0.02 0.01 50 1012.9
20260503003020 54 27 0.0 0.0 0.00 0.02 0.01 49 1012.5
20260503001516 54 299 0.0 0.0 0.00 0.02 0.01 49 1012.5
20260503000012 55 300 0.0 0.0 0.00 0.02 0.01 47 1012.2
20260502234510 56 355 0.0 0.0 0.00 0.02 0.01 46 1012.0
20260502233028 57 68 0.0 0.0 0.00 0.02 0.01 48 1011.9
20260502231545 57 90 0.0 0.0 0.00 0.02 0.01 45 1011.7
20260502230021 57 104 0.0 0.0 0.00 0.02 0.01 45 1011.8
20260502224520 57 43 0.0 0.0 0.00 0.02 0.01 45 1011.8
20260502223019 58 5 0.0 0.0 0.00 0.02 0.01 44 1011.7